{"data":{"norad_id":55598,"epoch":"2026-09-20T21:47:36.371904Z","epoch_age_seconds":65112,"freshness":"FRESH","line1":"1 55598U 23020AF  26263.90805986 -.00002624  00000+0 -85900-4 0  9994","line2":"2 55598  43.0043 331.8749 0001726 290.0678  69.9988 15.27568864198897","mean_motion":15.27568864,"eccentricity":0.0001726,"inclination_deg":43.0043,"raan_deg":331.8749,"arg_perigee_deg":290.0678,"mean_anomaly_deg":69.9988,"bstar":-8.59e-5,"rev_number":19889,"period_min":94.267435919668,"perigee_km":481.89819495679,"apogee_km":484.26668790797,"semimajor_km":6861.2194414324,"source":"CELESTRAK","updated_at":"2026-09-21T09:00:33.270573Z"}}